UAE6 EGLL-OMDB

Flight info

Callsign UAE6
Flight time N/A
Altitude 37000
Route DET L6 DVR UL9 KONAN DCT KOK DCT REMBA DCT MATUG DCT BOMBI DCT TENLO DCT LAMSI DCT SITNI DCT SASAL DCT BABIT DCT NEPOS DCT NISVA N131 USALI DCT RODIP DCT BELGI UN131 KULAR UT39 TOMBI DCT SAFTA/N0486F390 DCT TEZAK DCT LAKTO L560 SILKA M872 WEJ L604 GAS L308 DAROR P559 NALPO/N0475F350 P559 VUTEB
Aircraft A388/J-SADE2E3FGHIJ3J4J5M1RWXY/LB1D1

Departure

Time 2026-05-06 21:42
Airport London Heathrow Airport (EGLL)

Arrival

Time N/A
Airport Dubai International Airport (OMDB)
Time Latitude Longitude Altitude Speed Heading
2026-05-06 21:08 51.46833 -0.45831 92 ft 0 kts 360°
2026-05-06 21:27 51.46832 -0.45831 96 ft 1 kts 360°
2026-05-06 21:27 51.46822 -0.45831 96 ft 2 kts 360°
2026-05-06 21:28 51.46809 -0.45831 93 ft 2 kts 360°
2026-05-06 21:28 51.46796 -0.45831 94 ft 2 kts 360°
2026-05-06 21:28 51.46786 -0.45830 93 ft 2 kts 353°
2026-05-06 21:28 51.46773 -0.45823 93 ft 2 kts 336°
2026-05-06 21:29 51.46762 -0.45811 93 ft 2 kts 320°
2026-05-06 21:29 51.46754 -0.45794 92 ft 2 kts 304°
2026-05-06 21:29 51.46749 -0.45775 94 ft 2 kts 287°
2026-05-06 21:29 51.46748 -0.45754 93 ft 0 kts 271°
2026-05-06 21:33 51.46748 -0.45769 94 ft 4 kts 270°
2026-05-06 21:34 51.46748 -0.45834 92 ft 8 kts 270°
2026-05-06 21:34 51.46741 -0.45938 94 ft 10 kts 238°
2026-05-06 21:34 51.46695 -0.45983 95 ft 6 kts 185°
2026-05-06 21:34 51.46667 -0.46017 96 ft 6 kts 243°
2026-05-06 21:35 51.46659 -0.46100 96 ft 10 kts 270°
2026-05-06 21:35 51.46659 -0.46238 95 ft 14 kts 270°
2026-05-06 21:35 51.46659 -0.46458 95 ft 36 kts 270°
2026-05-06 21:35 51.46656 -0.47024 95 ft 53 kts 270°
2026-05-06 21:36 51.46656 -0.47572 94 ft 46 kts 269°
2026-05-06 21:36 51.46654 -0.48041 92 ft 40 kts 269°
2026-05-06 21:36 51.46651 -0.48409 95 ft 22 kts 270°
2026-05-06 21:36 51.46651 -0.48503 92 ft 9 kts 270°
2026-05-06 21:37 51.46651 -0.48611 92 ft 0 kts 270°
2026-05-06 21:38 51.46651 -0.48618 92 ft 3 kts 270°
2026-05-06 21:38 51.46652 -0.48675 95 ft 7 kts 270°
2026-05-06 21:39 51.46651 -0.48712 92 ft 0 kts 253°
2026-05-06 21:39 51.46647 -0.48725 93 ft 2 kts 231°
2026-05-06 21:39 51.46632 -0.48744 97 ft 5 kts 212°
2026-05-06 21:39 51.46616 -0.48757 96 ft 2 kts 204°
2026-05-06 21:40 51.46594 -0.48773 95 ft 5 kts 201°
2026-05-06 21:40 51.46550 -0.48792 94 ft 9 kts 187°
2026-05-06 21:40 51.46500 -0.48756 95 ft 9 kts 134°
2026-05-06 21:40 51.46477 -0.48668 96 ft 9 kts 98°
2026-05-06 21:41 51.46475 -0.48551 96 ft 12 kts 86°
2026-05-06 21:41 51.46479 -0.48414 94 ft 13 kts 89°
2026-05-06 21:41 51.46482 -0.47941 94 ft 81 kts 89°
2026-05-06 21:41 51.46486 -0.46757 98 ft 138 kts 90°
2026-05-06 21:42 51.46487 -0.44986 99 ft 172 kts 90°
2026-05-06 21:42 51.46491 -0.42989 482 ft 172 kts 87°
2026-05-06 21:42 51.46493 -0.41095 1013 ft 171 kts 94°
2026-05-06 21:42 51.46029 -0.39335 1431 ft 177 kts 129°
2026-05-06 21:43 51.45202 -0.37994 1821 ft 180 kts 131°
2026-05-06 21:43 51.44386 -0.36368 1965 ft 194 kts 120°
2026-05-06 21:43 51.43938 -0.35060 2049 ft 200 kts 112°
2026-05-06 21:43 51.43448 -0.32917 2159 ft 208 kts 105°
2026-05-06 21:44 51.43050 -0.30618 2204 ft 215 kts 102°
2026-05-06 21:44 51.42705 -0.28251 2261 ft 230 kts 101°
2026-05-06 21:44 51.42374 -0.25743 2473 ft 248 kts 100°
2026-05-06 21:44 51.42026 -0.23080 2873 ft 255 kts 100°
2026-05-06 21:45 51.41660 -0.20276 3360 ft 259 kts 101°
2026-05-06 21:45 51.41331 -0.17828 3783 ft 261 kts 101°
2026-05-06 21:45 51.41026 -0.15605 4155 ft 263 kts 102°
2026-05-06 21:45 51.40757 -0.13626 4489 ft 264 kts 102°
2026-05-06 21:46 51.40530 -0.11967 4737 ft 266 kts 102°
2026-05-06 21:46 51.40300 -0.10281 5096 ft 267 kts 102°
2026-05-06 21:46 51.40049 -0.08454 5605 ft 267 kts 102°
2026-05-06 21:46 51.39644 -0.05525 6020 ft 268 kts 102°
2026-05-06 21:47 51.39237 -0.02594 6050 ft 271 kts 103°
2026-05-06 21:47 51.38854 0.00163 6473 ft 268 kts 103°
2026-05-06 21:47 51.38444 0.03099 7077 ft 273 kts 103°
2026-05-06 21:47 51.38025 0.06093 7768 ft 277 kts 102°
2026-05-06 21:48 51.37602 0.09119 8450 ft 283 kts 102°
2026-05-06 21:48 51.37175 0.12164 9120 ft 288 kts 102°
2026-05-06 21:48 51.36736 0.15297 9859 ft 292 kts 102°
2026-05-06 21:48 51.36294 0.18443 10357 ft 303 kts 102°
2026-05-06 21:49 51.35815 0.21844 10542 ft 323 kts 102°
2026-05-06 21:49 51.35318 0.25373 10728 ft 340 kts 102°
2026-05-06 21:49 51.34796 0.29061 11207 ft 347 kts 102°
2026-05-06 21:49 51.34256 0.32854 11790 ft 350 kts 102°
2026-05-06 21:50 51.33719 0.36626 12399 ft 353 kts 102°
2026-05-06 21:50 51.33178 0.40414 13015 ft 356 kts 102°
2026-05-06 21:50 51.32621 0.44308 13658 ft 359 kts 102°
2026-05-06 21:50 51.32062 0.48207 14195 ft 362 kts 102°
2026-05-06 21:51 51.31492 0.52138 14720 ft 365 kts 103°
2026-05-06 21:51 51.30934 0.55995 15229 ft 369 kts 103°
2026-05-06 21:51 51.30351 0.60002 15765 ft 372 kts 104°
2026-05-06 21:51 51.29636 0.63925 16251 ft 375 kts 106°
2026-05-06 21:52 51.28897 0.67953 16760 ft 378 kts 106°
2026-05-06 21:52 51.28158 0.72002 17265 ft 382 kts 106°
2026-05-06 21:52 51.27425 0.75999 17760 ft 384 kts 106°
2026-05-06 21:52 51.26671 0.80113 18248 ft 388 kts 107°